sat.trackr.live / text

‹ back to catalog

CO3D 3

NORAD 64900 · 2025-156B

PAYLOAD ACTIVE UNKNOWN

§ Identity

Operator
Country
FR
Launch date
2025-07-26
Launch site
FRGUI
Launch vehicle
Mass (kg)
RCS (m²)

Purposes: earth_obs

External: N2YO · Heavens-Above · Gunter

§ Orbital elements

Epoch: 2026-09-19T15:26:23.865792Z

Period
94.72 min
Inclination
97.4341°
Eccentricity
0.0001270
Mean motion
15.20198673 rev/d
Perigee alt
504.4 km
Apogee alt
506.1 km
Semi-major
6,883.4 km
B*
1.4231e-4
RAAN
339.9786°
Arg perigee
115.4146°
Mean anomaly
244.7221°
Rev number
6,388

§ Raw data

CO3D 31 64900U 25156B   26262.64333178  .00003014  00000+0  14231-3 0  99922 64900  97.4341 339.9786 0001270 115.4146 244.7221 15.20198673 63885

JSON: /api/v1/satellites/64900 · /tle

For live sub-satellite position, see the globe view (requires WebGL).

§ Visibility from observer

Set your observer location to see the next 7 days of passes ≥ 10°. The values pass through the URL so the page stays shareable.

No JS? Fill the form by hand. The geolocation button needs JavaScript.